TimeCDT,TemperatureF,Dew PointF,Humidity,Sea Level PressureIn,VisibilityMPH,Wind Direction,Wind SpeedMPH,Gust SpeedMPH,PrecipitationIn,Events,Conditions,WindDirDegrees,DateUTC
12:53 AM,73.0,66.9,81,29.95,10.0,SE,11.5,-,N/A,,Clear,130,2013-04-02 05:53:00
1:53 AM,72.0,66.9,84,29.92,10.0,SE,15.0,-,N/A,,Clear,130,2013-04-02 06:53:00
2:53 AM,72.0,66.9,84,29.90,10.0,SE,15.0,-,N/A,,Clear,140,2013-04-02 07:53:00
3:53 AM,72.0,66.9,84,29.88,10.0,SSE,10.4,-,N/A,,Partly Cloudy,150,2013-04-02 08:53:00
4:53 AM,72.0,68.0,87,29.87,10.0,SE,9.2,-,N/A,,Partly Cloudy,140,2013-04-02 09:53:00
5:22 AM,71.6,68.0,88,29.87,10.0,SE,11.5,-,0.00,,Mostly Cloudy,130,2013-04-02 10:22:00
5:53 AM,72.0,68.0,87,29.88,10.0,SE,12.7,-,0.00,,Mostly Cloudy,140,2013-04-02 10:53:00
6:53 AM,72.0,68.0,87,29.87,10.0,ESE,9.2,-,N/A,,Mostly Cloudy,120,2013-04-02 11:53:00
7:53 AM,72.0,68.0,87,29.89,10.0,ESE,11.5,-,N/A,,Overcast,120,2013-04-02 12:53:00
8:44 AM,73.4,68.0,83,29.91,10.0,ESE,11.5,-,N/A,,Overcast,110,2013-04-02 13:44:00
8:53 AM,73.0,69.1,87,29.91,10.0,ESE,12.7,-,N/A,,Overcast,120,2013-04-02 13:53:00
9:33 AM,73.4,69.8,88,29.91,10.0,SE,15.0,-,N/A,,Overcast,130,2013-04-02 14:33:00
9:46 AM,75.2,69.8,83,29.91,10.0,SE,13.8,-,N/A,,Overcast,130,2013-04-02 14:46:00
9:53 AM,75.0,69.1,82,29.91,10.0,SE,12.7,-,N/A,,Overcast,140,2013-04-02 14:53:00
10:32 AM,77.0,69.8,78,29.90,10.0,SE,16.1,-,N/A,,Overcast,140,2013-04-02 15:32:00
10:53 AM,79.0,69.1,72,29.89,10.0,SE,13.8,-,N/A,,Overcast,130,2013-04-02 15:53:00
11:08 AM,80.6,69.8,70,29.90,10.0,ESE,13.8,-,N/A,,Mostly Cloudy,120,2013-04-02 16:08:00
11:20 AM,80.6,68.0,65,29.90,10.0,SE,16.1,-,N/A,,Overcast,140,2013-04-02 16:20:00
11:53 AM,81.0,68.0,65,29.89,10.0,ESE,15.0,-,N/A,,Overcast,120,2013-04-02 16:53:00
12:53 PM,80.1,69.1,69,29.88,10.0,SE,15.0,-,N/A,,Overcast,130,2013-04-02 17:53:00
1:09 PM,80.6,69.8,70,29.87,10.0,ESE,16.1,21.9,0.00,Rain,Light Rain,120,2013-04-02 18:09:00
1:18 PM,80.6,69.8,70,29.87,10.0,ESE,11.5,21.9,0.00,,Overcast,110,2013-04-02 18:18:00
1:29 PM,80.6,69.8,70,29.86,10.0,East,15.0,-,0.00,,Overcast,100,2013-04-02 18:29:00
1:36 PM,80.6,69.8,70,29.86,10.0,ESE,13.8,-,0.00,,Overcast,110,2013-04-02 18:36:00
1:53 PM,80.1,69.1,69,29.85,10.0,ESE,16.1,20.7,0.00,,Overcast,120,2013-04-02 18:53:00
2:53 PM,84.0,69.1,61,29.81,9.0,SE,16.1,-,0.00,,Mostly Cloudy,130,2013-04-02 19:53:00
3:53 PM,86.0,68.0,55,29.77,10.0,SE,16.1,-,N/A,,Mostly Cloudy,130,2013-04-02 20:53:00
4:53 PM,84.9,66.9,55,29.74,10.0,SE,15.0,-,N/A,,Scattered Clouds,130,2013-04-02 21:53:00
5:53 PM,84.9,66.9,55,29.73,10.0,SE,18.4,-,N/A,,Mostly Cloudy,130,2013-04-02 22:53:00
6:53 PM,82.9,66.9,58,29.73,10.0,SE,15.0,-,N/A,,Partly Cloudy,130,2013-04-02 23:53:00
7:53 PM,80.1,66.9,64,29.74,10.0,SE,11.5,-,N/A,,Clear,130,2013-04-03 00:53:00
8:53 PM,78.1,68.0,71,29.75,10.0,SE,9.2,-,N/A,,Clear,140,2013-04-03 01:53:00
9:53 PM,75.9,68.0,76,29.76,10.0,SE,9.2,-,N/A,,Clear,130,2013-04-03 02:53:00
10:28 PM,75.2,68.0,78,29.78,10.0,SE,8.1,-,N/A,,Mostly Cloudy,130,2013-04-03 03:28:00
10:53 PM,73.9,69.1,85,29.79,10.0,ESE,8.1,-,N/A,,Mostly Cloudy,120,2013-04-03 03:53:00
11:53 PM,73.9,69.1,85,29.80,10.0,SE,9.2,-,N/A,,Overcast,140,2013-04-03 04:53:00